Location: Rosenheim
(47.8408°N, 12.2113°E)
Time: 14:36:48
(UTC+02:00)

ISS - Pass Details

Date: 22 March 2017
Orbit: 400 x 408 km, 51.6° (Epoch: 27 July)

Event Time Altitude Azimuth Distance (km) Brightness Sun altitude
Exits shadow 03:53:50 28° 126° (SE) 823 -2.1 -22.7°
Drops below altitude 10° 03:55:33 10° 121° (ESE) 1,494 -0.6 -22.5°
Sets 03:57:38 0° 120° (ESE) 2,356 0.5 -22.2°
